Detroit Lakes, MN

3:24 PM CDT on April 26, 2017 (GMT -0500)
Detroit Lakes

Weather History for KDTL - June, 2012

Change the Weather History Date:

Saturday, June 30, 2012

  Actual Average Record
Temperature  
Mean Temperature 70 °F -  
Max Temperature 82 °F 78 °F 94 °F (1961)
Min Temperature 59 °F 53 °F 37 °F (1959)
Cooling Degree Days 6    
Growing Degree Days 20 (Base 50)    
Moisture  
Dew Point 58 °F    
Average Humidity 63    
Maximum Humidity 94    
Minimum Humidity 39    
Precipitation  
Precipitation 0.00 in - - ()
Sea Level Pressure  
Sea Level Pressure 29.90 in    
Wind  
Wind Speed 2 mph (SW)    
Max Wind Speed 14 mph    
Max Gust Speed -    
Visibility 10 miles    
Events      
Averages and records for this station are not official NWS values.
T = Trace of Precipitation, MM = Missing Value Source: NWS Daily Summary

Daily Weather History Graph

Daily Weather History Graph

Search for Another Location

Airport or City:

Trip Planner

Search our weather history database for the weather conditions in past years. The results will help you decide how hot, cold, wet, or windy it might be!

Date:

Astronomy

Jun. 30, 2012 Rise Set
Actual Time 5:32 AM CDT 9:21 PM CDT
Civil Twilight 4:53 AM CDT 10:00 PM CDT
Nautical Twilight 4:00 AM CDT 10:54 PM CDT
Astronomical Twilight 2:42 AM CDT 12:11 AM CDT
Moon 6:15 PM CDT (6/30) 2:34 AM CDT (6/30)
Length of Visible Light 17h 07m
Length of Day
15h 48m
Waxing Gibbous, 87% of the Moon is Illuminated
Jun 30
Waxing Gibbous
Jul 3
Full
Jul 10
Last Quarter
Jul 18
New
Jul 26
First Quarter

Hourly Weather History & Observations

Time (CDT) Temp. Heat Index Dew Point Humidity Pressure Visibility Wind Dir Wind Speed Gust Speed Precip Events Conditions
12:13 AM 69.8 °F - 59.0 °F 68% 29.88 in 10.0 mi Calm Calm - N/A   Clear
12:32 AM 69.8 °F - 55.4 °F 60% 29.88 in 10.0 mi Calm Calm - N/A   Clear
12:53 AM 64.4 °F - 57.2 °F 77% 29.89 in 10.0 mi Calm Calm - N/A   Clear
1:13 AM 64.4 °F - 60.8 °F 88% 29.88 in 10.0 mi Calm Calm - N/A   Clear
1:32 AM 64.4 °F - 59.0 °F 83% 29.88 in 10.0 mi Calm Calm - N/A   Clear
1:53 AM 64.4 °F - 60.8 °F 88% 29.88 in 10.0 mi Calm Calm - N/A   Clear
2:13 AM 62.6 °F - 59.0 °F 88% 29.88 in 10.0 mi Calm Calm - N/A   Clear
2:32 AM 62.6 °F - 59.0 °F 88% 29.87 in 10.0 mi Calm Calm - N/A   Clear
2:53 AM 62.6 °F - 59.0 °F 88% 29.87 in 10.0 mi Calm Calm - N/A   Clear
3:13 AM 60.8 °F - 59.0 °F 94% 29.87 in 10.0 mi Calm Calm - N/A   Clear
3:32 AM 62.6 °F - 60.8 °F 94% 29.87 in 10.0 mi Calm Calm - N/A   Clear
4:13 AM 60.8 °F - 57.2 °F 88% 29.88 in 10.0 mi Calm Calm - N/A   Clear
4:32 AM 60.8 °F - 55.4 °F 82% 29.88 in 10.0 mi Calm Calm - N/A   Clear
4:53 AM 59.0 °F - 57.2 °F 94% 29.89 in 10.0 mi Calm Calm - N/A   Clear
5:13 AM 60.8 °F - 57.2 °F 88% 29.89 in 10.0 mi Calm Calm - N/A   Clear
5:32 AM 60.8 °F - 57.2 °F 88% 29.90 in 10.0 mi Calm Calm - N/A   Clear
6:13 AM 62.6 °F - 59.0 °F 88% 29.92 in 10.0 mi Calm Calm - N/A   Clear
6:32 AM 60.8 °F - 59.0 °F 94% 29.91 in 10.0 mi Calm Calm - N/A   Clear
6:53 AM 60.8 °F - 57.2 °F 88% 29.91 in 10.0 mi ENE 3.5 mph - N/A   Clear
7:13 AM 60.8 °F - 57.2 °F 88% 29.92 in 10.0 mi Calm Calm - N/A   Clear
7:32 AM 62.6 °F - 59.0 °F 88% 29.91 in 10.0 mi ENE 3.5 mph - N/A   Clear
7:53 AM 66.2 °F - 60.8 °F 83% 29.93 in 10.0 mi Calm Calm - N/A   Clear
8:13 AM 69.8 °F - 57.2 °F 64% 29.93 in 10.0 mi Calm Calm - N/A   Clear
8:32 AM 69.8 °F - 59.0 °F 68% 29.93 in 10.0 mi Calm Calm - N/A   Clear
8:53 AM 71.6 °F - 59.0 °F 64% 29.93 in 10.0 mi Calm Calm - N/A   Clear
9:13 AM 73.4 °F - 57.2 °F 57% 29.93 in 10.0 mi Calm Calm - N/A   Clear
9:32 AM 73.4 °F - 59.0 °F 61% 29.92 in 10.0 mi Calm Calm - N/A   Clear
9:53 AM 75.2 °F - 59.0 °F 57% 29.92 in 10.0 mi Calm Calm - N/A   Clear
10:13 AM 77.0 °F - 53.6 °F 44% 29.91 in 10.0 mi Calm Calm - N/A   Clear
10:33 AM 75.2 °F - 53.6 °F 47% 29.91 in 10.0 mi Calm Calm - N/A   Clear
10:52 AM 75.2 °F - 53.6 °F 47% 29.92 in 10.0 mi Calm Calm - N/A   Clear
11:13 AM 75.2 °F - 55.4 °F 50% 29.94 in 10.0 mi WNW 5.8 mph - N/A   Clear
11:33 AM 75.2 °F - 59.0 °F 57% 29.95 in 10.0 mi West 5.8 mph - N/A   Clear
11:52 AM 77.0 °F - 59.0 °F 54% 29.94 in 10.0 mi WSW 4.6 mph - N/A   Clear
12:13 PM 77.0 °F - 55.4 °F 47% 29.90 in 10.0 mi South 6.9 mph - N/A   Clear
12:32 PM 78.8 °F - 55.4 °F 44% 29.86 in 10.0 mi SSE 13.8 mph - N/A   Clear
12:53 PM 77.0 °F - 55.4 °F 47% 29.88 in 10.0 mi South 9.2 mph - N/A   Clear
1:12 PM 78.8 °F - 57.2 °F 47% 29.88 in 10.0 mi SE 8.1 mph - N/A   Clear
1:33 PM 78.8 °F - 55.4 °F 44% 29.88 in 10.0 mi SE 9.2 mph - N/A   Clear
1:53 PM 80.6 °F 80.5 °F 55.4 °F 42% 29.86 in 10.0 mi SSE 10.4 mph - N/A   Clear
2:13 PM 80.6 °F 80.5 °F 55.4 °F 42% 29.89 in 10.0 mi South 5.8 mph - N/A   Clear
2:33 PM 80.6 °F 80.5 °F 55.4 °F 42% 29.90 in 10.0 mi South 3.5 mph - N/A   Clear
2:53 PM 80.6 °F 80.5 °F 55.4 °F 42% 29.90 in 10.0 mi SSE 3.5 mph - N/A   Clear
3:13 PM 80.6 °F 80.5 °F 55.4 °F 42% 29.89 in 10.0 mi South 4.6 mph - N/A   Clear
3:33 PM 80.6 °F 80.8 °F 57.2 °F 45% 29.89 in 7.0 mi Calm Calm - N/A   Clear
3:53 PM 82.4 °F 81.7 °F 55.4 °F 39% 29.90 in 10.0 mi West 3.5 mph - N/A   Clear
4:12 PM 82.4 °F 81.7 °F 55.4 °F 39% 29.90 in 10.0 mi West 3.5 mph - N/A   Clear
4:33 PM 82.4 °F 82.5 °F 59.0 °F 45% 29.89 in 10.0 mi West 3.5 mph - N/A   Clear
4:53 PM 82.4 °F 81.7 °F 55.4 °F 39% 29.89 in 10.0 mi West 9.2 mph - N/A   Clear
5:13 PM 82.4 °F 81.7 °F 55.4 °F 39% 29.89 in 10.0 mi West 4.6 mph - N/A   Clear
5:33 PM 82.4 °F 82.0 °F 57.2 °F 42% 29.89 in 10.0 mi West 4.6 mph - N/A   Clear
5:53 PM 80.6 °F 81.1 °F 59.0 °F 48% 29.89 in 10.0 mi West 3.5 mph - N/A   Clear
6:13 PM 80.6 °F 81.1 °F 59.0 °F 48% 29.88 in 10.0 mi WNW 4.6 mph - N/A   Clear
6:33 PM 80.6 °F 81.5 °F 60.8 °F 51% 29.88 in 10.0 mi WNW 5.8 mph - N/A   Clear
6:53 PM 80.6 °F 81.1 °F 59.0 °F 48% 29.88 in 10.0 mi West 5.8 mph - N/A   Clear
7:12 PM 80.6 °F 81.1 °F 59.0 °F 48% 29.89 in 10.0 mi West 5.8 mph - N/A   Clear
7:33 PM 78.8 °F - 59.0 °F 51% 29.90 in 10.0 mi West 4.6 mph - N/A   Scattered Clouds
7:53 PM 78.8 °F - 60.8 °F 54% 29.90 in 10.0 mi West 3.5 mph - N/A   Scattered Clouds
8:12 PM 78.8 °F - 60.8 °F 54% 29.90 in 10.0 mi Calm Calm - N/A   Clear
8:33 PM 78.8 °F - 60.8 °F 54% 29.89 in 10.0 mi Calm Calm - N/A   Clear
8:53 PM 77.0 °F - 60.8 °F 57% 29.89 in 10.0 mi Calm Calm - N/A   Scattered Clouds
9:13 PM 77.0 °F - 60.8 °F 57% 29.90 in 10.0 mi Calm Calm - N/A   Clear
9:33 PM 73.4 °F - 60.8 °F 65% 29.91 in 10.0 mi SW 3.5 mph - N/A   Clear
9:53 PM 75.2 °F - 60.8 °F 61% 29.91 in 10.0 mi Calm Calm - N/A   Clear
10:13 PM 73.4 °F - 60.8 °F 65% 29.91 in 10.0 mi South 3.5 mph - N/A   Clear
10:33 PM 71.6 °F - 62.6 °F 73% 29.92 in 10.0 mi SSW 3.5 mph - N/A   Clear
10:53 PM 71.6 °F - 62.6 °F 73% 29.91 in 10.0 mi Calm Calm - N/A   Clear
11:33 PM 71.6 °F - 62.6 °F 73% 29.89 in 10.0 mi ENE 4.6 mph - N/A   Clear
11:53 PM 69.8 °F - 62.6 °F 78% 29.89 in 10.0 mi Calm Calm - N/A   Clear